Location: Baia Mare
(47.6567°N, 23.5850°E)
Time: 13:31:11
(UTC+03:00)

ISS - Pass Details

Date: 14 July 2019
Orbit: 409 x 418 km, 51.6° (Epoch: 21 July)

Event Time Altitude Azimuth Distance (km) Brightness Sun altitude
Rises 04:10:53 0° 290° (WNW) 2,346 -0.1 -11.9°
Reaches altitude 10° 04:13:01 10° 296° (WNW) 1,482 -1.1 -11.7°
Maximum altitude 04:16:16 50° 13° (NNE) 534 -2.8 -11.4°
Drops below altitude 10° 04:19:30 10° 90° (E) 1,475 -0.4 -11.0°
Sets 04:21:37 0° 96° (E) 2,334 0.5 -10.8°
